SCP
0 0 0 0 0 0 0 0 0 0 0 0 0 0 0 0 0 0 0 0 0 0 0 0 0 0 0 0 0 0 0 0 0 0 0 0 0 0 0 0 0 0 0 0
0 0 0 0 0 0 0 0 0 0 0 0 0 0 0 0 0 0 0 0 0 0 0 0 0 0 0 0 0 0 0 0 0 0 0 0 0 0 0 0 0 0 0 0
0 0 0 0 0 0 0 0 0 0 0 0 0 0 0 0 0 0 0 0 0 0 0 0 0 0 0 0 0 0 0 0 0 0 0 0 0 0 0 0 0 0 0 0
0 0 0 0 0 0 0 0 0 0 0 0 0 0 0 0 0 0 0 0 0 0 0 0 0 0 0 0 0 0 0 0 0 0 0 0 0 0 0 0 0 0 0 0
0 0 0 0 0 0 0 0 0 0 0 0 0 0 0 0 0 0 0 0 0 0 0 0 0 0 0 0 0 0 0 0 0 0 0 0 0 0 0 0 0 0 0 0
0 0 0 0 0 0 0 0 0 0 0 0 0 0 0 0 0 0 0 0 0 0 0 0 0 0 0 0 0 0 0 0 0 0 0 0 0 0 0 0 0 0 0 0
0 0 0 0 0 0 0 0 0 0 0 0 0 0 0 0 0 0 0 0 0 0 0 0 0 0 0 0 0 0 0 0 0 0 0 0 0 0 0 0 0 0 0 0
0 0 0 0 0 0 0 0 0 0 0 0 0 0 0 0 0 0 0 0 0 0 0 0 0 0 0 0 0 0 0 0 0 0 0 0 0 0 0 0 0 0 0 0
0 0 0 0 0 0 0 0 0 0 0 0 0 0 0 0 0 0 0 0 0 0 0 0 0 0 0 0 0 0 0 0 0 0 0 0 0 0 0 0 0 0 0 0
0 0 0 0 0 0 0 0 0 0 0 0 0 0 0 0 0 0 0 0 0 0 0 0 0 0 0 0 0 0 0 0 0 0 0 0 0 0 0 0 0 0 0 0
0 0 0 0 0 0 0 0 0 0 0 0 0 0 0 0 0 0 0 0 0 0 0 0 0 0 0 0 0 0 0 0 0 0 0 0 0 0 0 0 0 0 0 0
0 0 0 0 0 0 0 0 0 0 0 0 0 0 0 0 0 0 0 0 0 0 0 0 0 0 0 0 0 0 0 0 0 0 0 0 0 0 0 0 0 0 0 0
0 0 0 0 0 0 0 0 0 0 0 0 0 0 0 0 0 0 0 0 0 0 0 0 0 0 0 0 0 0 0 0 0 0 0 0 0 0 0 0 0 0 0 0
0 0 0 0 0 0 0 0 0 0 0 0 0 0 0 0 0 0 0 0 0 0 0 0 0 0 0 0 0 0 0 0 0 0 0 0 0 0 0 0 0 0 0 0
0 0 0 0 0 0 0 0 0 0 0 0 0 0 0 0 0 0 0 0 0 0 0 0 0 0 0 0 0 0 0 0 0 0 0 0 0 0 0 0 0 0 0 0
0 0 0 0 0 0 0 0 0 0 0 0 0 0 0 0 0 0 0 0 0 0 0 0 0 0 0 0 0 0 0 0 0 0 0 0 0 0 0 0 0 0 0 0
0 0 0 0 0 0 0 0 0 0 0 0 0 0 0 0 0 0 0 0 0 0 0 0 0 0 0 0 0 0 0 0 0 0 0 0 0 0 0 0 0 0 0 0
0 0 0 0 0 0 0 0 0 0 0 0 0 0 0 0 0 0 0 0 0 0 0 0 0 0 0 0 0 0 0 0 0 0 0 0 0 0 0 0 0 0 0 0
0 0 0 0 0 0 0 0 0 0 0 0 0 0 0 0 0 0 0 0 0 0 0 0 0 0 0 0 0 0 0 0 0 0 0 0 0 0 0 0 0 0 0 0
0 0 0 0 0 0 0 0 0 0 0 0 0 0 0 0 0 0 0 0 0 0 0 0 0 0 0 0 0 0 0 0 0 0 0 0 0 0 0 0 0 0 0 0
0 0 0 0 0 0 0 0 0 0 0 0 0 0 0 0 0 0 0 0 0 0 0 0 0 0 0 0 0 0 0 0 0 0 0 0 0 0 0 0 0 0 0 0
0 0 0 0 0 0 0 0 0 0 0 0 0 0 0 0 0 0 0 0 0 0 0 0 0 0 0 0 0 0 0 0 0 0 0 0 0 0 0 0 0 0 0 0
0 0 0 0 0 0 0 0 0 0 0 0 0 0 0 0 0 0 0 0 0 0 0 0 0 0 0 0 0 0 0 0 0 0 0 0 0 0 0 0 0 0 0 0
0 0 0 0 0 0 0 0 0 0 0 0 0 0 0 0 0 0 0 0 0 0 0 0 0 0 0 0 0 0 0 0 0 0 0 0 0 0 0 0 0 0 0 0
0 0 0 0 0 0 0 0 0 0 0 0 0 0 0 0 0 0 0 0 0 0 0 0 0 0 0 0 0 0 0 0 0 0 0 0 0 0 0 0 0 0 0 0
0 0 0 0 0 0 0 0 0 0 0 0 0 0 0 0 0 0 0 0 0 0 0 0 0 0 0 0 0 0 0 0 0 0 0 0 0 0 0 0 0 0 0 0
0 0 0 0 0 0 0 0 0 0 0 0 0 0 0 0 0 0 0 0 0 0 0 0 0 0 0 0 0 0 0 0 0 0 0 0 0 0 0 0 0 0 0 0
Wind_Speed_500mb
3 7 6 8 10 27 25 46 18 36 35 51 27 28 54 62 64 67 64 61 55 47 41 37 29 23 20 23 26 24 22 27 32 38 42 46 49 50 48 45 40 34 31 28
7 7 9 6 13 20 43 28 36 46 46 7 31 52 50 66 73 72 71 69 61 51 46 40 32 23 18 20 21 16 19 22 29 36 42 46 47 48 48 43 38 33 28 26
8 1 1 6 34 42 37 16 39 34 54 18 13 35 62 75 85 86 81 74 67 60 52 41 31 22 17 17 14 11 14 21 27 33 39 44 46 46 46 44 38 33 29 26
6 2 18 3 5 36 37 42 45 38 42 13 27 59 65 75 91 86 80 74 67 61 56 42 33 23 16 15 11 7 11 18 24 30 36 41 42 44 44 44 41 38 31 28
8 11 21 26 14 19 20 23 50 54 56 21 18 29 39 60 72 81 80 72 66 57 51 40 32 24 17 17 11 3 7 13 19 27 33 37 41 43 46 44 41 38 33 30
8 8 17 2 4 17 18 22 39 47 47 24 41 14 21 63 66 69 69 71 67 59 52 44 33 24 21 19 13 5 2 8 16 24 29 35 39 42 44 46 44 41 36 30
22 14 19 14 23 28 11 18 5 43 45 54 23 34 11 43 68 69 69 69 65 60 50 40 34 27 27 22 16 9 4 4 12 18 25 32 35 38 42 45 45 45 42 37
13 16 40 30 11 21 12 12 11 12 37 66 53 41 33 50 68 75 71 71 67 62 54 43 36 33 31 25 20 13 7 2 8 13 20 26 30 34 39 42 45 47 48 46
26 19 9 79 25 64 20 12 16 19 26 55 64 51 54 60 68 74 73 74 68 61 52 45 40 39 34 29 23 17 11 4 4 9 15 21 26 30 34 38 42 46 49 51
9 21 24 60 51 33 47 19 13 18 26 49 67 57 61 64 73 78 77 75 69 63 54 48 45 43 36 32 27 20 15 8 2 4 9 16 22 27 30 34 37 42 47 51
15 10 2 37 74 62 48 49 28 23 31 45 55 61 63 71 77 78 76 72 66 58 52 49 49 45 38 34 30 24 20 12 5 2 6 11 16 22 26 30 34 38 42 46
28 31 37 28 68 87 75 65 51 38 39 44 54 63 68 70 73 73 73 71 65 56 52 52 50 45 42 38 34 27 23 16 10 6 5 8 12 16 21 25 26 28 32 37
9 17 56 36 40 55 84 80 71 55 47 53 59 62 66 69 68 67 70 65 60 55 55 54 51 48 45 42 37 31 27 20 15 12 9 10 13 16 13 16 23 26 27 30
69 32 34 56 27 40 50 60 66 60 53 57 65 66 66 66 65 68 65 58 53 54 56 54 51 48 45 42 39 35 30 24 20 18 16 13 14 18 22 25 23 20 23 27
62 52 27 39 46 32 41 48 52 64 64 65 68 70 70 69 68 65 60 55 52 54 56 56 53 50 49 46 42 39 35 28 25 24 22 19 18 19 22 26 27 26 24 23
52 55 39 29 38 43 44 45 51 68 70 71 78 76 70 66 62 60 56 54 59 62 60 57 53 49 49 47 45 43 38 34 29 28 28 26 24 24 24 26 27 29 27 28
45 40 48 44 40 40 44 43 47 59 71 77 82 78 74 70 63 58 54 52 51 49 48 50 48 51 51 49 45 42 40 38 33 32 31 31 31 31 30 29 28 28 27 27
25 25 30 42 46 43 42 41 45 52 67 76 81 79 77 72 66 59 54 52 53 53 52 49 49 52 51 49 46 44 42 42 38 35 35 37 35 35 36 34 31 30 27 24
34 23 16 22 35 35 43 40 42 46 53 70 77 77 71 65 57 53 51 51 53 55 55 53 52 55 51 48 48 48 45 43 43 40 38 40 40 38 38 38 36 32 29 27
22 27 22 20 20 30 32 35 34 38 43 55 69 71 70 63 55 50 47 47 45 46 46 48 51 51 48 46 47 47 46 45 44 43 42 42 41 40 40 40 39 35 31 29
19 23 24 21 20 24 26 26 30 34 38 46 61 69 64 58 53 48 48 46 42 43 44 44 48 48 47 46 47 48 46 47 46 44 43 42 42 42 41 40 38 36 33 31
25 24 24 24 22 24 27 30 32 33 36 43 54 59 60 57 54 50 42 36 37 42 44 45 46 42 41 43 43 46 46 48 47 46 45 43 42 41 40 39 37 35 35 33
26 26 25 25 24 25 27 28 31 34 37 41 52 59 60 56 52 48 43 39 40 40 41 41 41 41 42 44 44 45 46 47 47 46 45 43 42 40 39 37 37 36 35 34
34 33 33 32 30 29 33 35 36 37 40 46 51 52 52 55 51 45 41 40 40 38 35 36 37 39 41 43 42 44 45 45 45 45 44 43 42 40 39 37 37 36 36 37
43 42 40 37 35 35 34 35 36 37 38 40 41 41 40 39 35 34 33 32 31 34 34 37 37 39 39 41 42 42 42 43 43 43 42 42 42 41 40 39 39 39 40 40
40 42 40 37 40 38 35 33 32 35 34 35 34 32 30 27 26 25 28 30 32 34 33 35 35 37 39 40 41 42 42 43 43 43 42 43 43 43 43 42 41 43 43 43
36 37 35 34 32 29 27 26 23 24 23 22 24 24 24 25 26 27 30 32 34 34 33 36 36 38 39 40 41 42 44 44 43 43 43 44 45 45 44 43 44 46 45 45
Wind_Direction_500mb
236 113 146 199 192 191 197 225 202 242 227 242 208 202 201 188 186 186 192 202 205 204 208 219 227 241 268 296 310 319 335 349 352 352 354 355 351 347 345 345 339 326 308 302
312 166 161 201 252 226 218 232 250 257 264 159 222 207 191 189 187 192 202 205 205 207 210 217 227 236 266 293 303 318 338 357 360 356 357 358 354 351 349 348 345 339 326 318
243 192 171 278 218 223 224 193 228 239 246 150 195 182 194 192 197 202 207 206 205 207 212 218 224 237 263 284 282 312 345 6 4 359 1 0 358 355 354 355 351 347 341 334
169 57 267 257 180 221 230 232 229 250 255 184 216 215 217 213 209 208 209 208 207 208 211 212 219 233 252 258 259 303 3 12 5 3 6 4 2 2 3 3 360 355 349 343
171 199 293 292 191 182 182 240 229 233 248 187 174 191 224 219 219 219 214 211 209 210 210 207 215 230 233 232 238 267 20 15 9 8 9 7 8 10 10 10 11 8 1 351
134 198 242 125 138 132 104 278 225 213 234 146 143 192 231 214 213 210 211 210 205 203 201 204 214 219 216 216 219 188 51 21 15 14 12 12 13 15 16 17 16 15 11 1
211 230 271 178 161 148 133 254 172 210 220 164 191 208 189 201 200 204 202 200 198 198 200 202 210 208 207 207 204 182 163 40 25 18 12 17 17 17 21 22 24 23 20 11
202 216 259 145 114 179 206 181 201 212 209 196 194 193 194 189 193 194 191 188 191 192 195 201 204 203 203 201 197 184 180 98 37 20 16 17 19 22 23 23 25 26 24 22
191 212 168 177 192 203 202 201 217 228 198 201 188 181 183 186 186 186 187 184 188 193 195 198 200 200 200 202 195 189 190 177 50 18 15 13 16 23 23 23 21 20 20 18
111 233 223 203 211 217 210 209 236 226 201 202 192 184 183 183 181 183 184 186 188 191 196 199 197 200 198 200 195 192 196 198 176 14 13 10 8 15 18 18 19 16 11 13
250 256 87 227 220 222 217 222 224 211 203 197 193 187 186 181 181 185 186 188 192 195 199 199 199 200 199 199 199 195 202 209 218 296 357 3 6 6 10 10 12 11 6 5
215 192 211 218 226 222 221 217 213 209 195 201 198 191 186 184 185 187 189 190 192 196 201 200 201 199 200 199 201 201 209 215 224 250 311 343 1 2 360 1 4 5 2 357
217 191 209 217 222 229 227 225 218 212 214 204 196 199 189 187 187 190 192 193 197 201 202 200 202 201 200 203 204 206 215 221 232 251 279 310 336 345 357 355 352 356 358 355
219 206 200 209 214 222 216 223 218 210 209 209 199 192 192 190 189 193 194 197 198 202 202 202 204 204 203 203 208 211 219 229 241 253 271 292 316 328 334 341 349 359 356 355
211 209 219 207 209 203 206 208 200 201 204 202 201 196 193 193 196 194 195 196 198 202 203 204 205 203 206 207 210 216 223 228 243 255 266 280 296 311 320 327 335 343 351 352
206 214 212 201 202 201 203 199 200 200 202 201 199 197 197 197 195 196 195 199 202 204 204 207 208 207 210 212 213 219 224 232 240 254 265 275 286 296 305 313 324 332 341 342
183 194 202 199 196 198 210 211 209 208 203 203 200 196 194 193 195 196 198 202 207 210 213 212 210 210 212 217 220 225 229 234 241 252 265 276 282 290 296 304 312 321 329 334
182 188 209 219 214 210 210 209 210 213 210 206 202 196 194 196 199 196 200 203 204 202 206 210 211 216 216 220 224 230 238 245 247 254 263 271 279 282 288 294 302 308 316 321
191 184 172 194 207 214 223 222 218 216 213 211 203 198 198 199 200 203 204 205 208 210 209 209 212 220 220 224 229 235 241 247 255 260 265 270 274 279 282 288 294 298 304 309
168 182 186 190 190 198 203 208 210 212 210 205 201 198 198 198 199 203 207 214 214 217 214 215 217 221 226 227 235 241 247 253 258 262 265 269 273 276 277 280 285 289 294 298
152 160 166 166 173 173 176 188 195 197 196 197 200 199 198 196 199 202 208 210 211 213 216 220 226 227 230 233 240 248 253 259 262 266 268 271 273 273 274 276 278 282 287 289
164 161 157 160 162 163 170 177 180 186 187 188 191 194 195 197 201 203 207 216 215 216 219 223 230 232 234 240 244 251 255 260 264 265 267 270 272 272 272 272 274 277 280 282
140 150 149 146 150 152 159 168 174 176 181 183 187 189 193 200 203 204 210 212 216 216 222 225 230 238 242 243 248 252 257 260 262 264 266 268 269 269 271 272 274 275 277 278
115 124 134 137 140 145 154 155 162 166 173 176 180 186 193 193 196 203 209 213 212 219 222 230 235 239 244 250 251 254 257 260 262 264 265 266 268 269 270 271 271 273 274 275
104 105 109 116 126 128 135 139 149 151 159 167 171 179 186 192 205 209 212 217 219 220 223 231 237 243 247 252 255 257 259 262 264 264 265 267 267 268 268 268 271 272 271 272
100 103 106 112 116 121 129 133 146 147 158 165 171 181 192 202 208 213 221 226 226 233 234 238 242 246 250 253 257 260 261 261 263 265 265 266 266 266 268 269 269 271 272 272
103 103 105 109 115 122 129 134 149 157 166 174 186 191 203 209 219 226 227 231 238 238 242 248 251 252 255 258 259 261 261 262 264 265 264 264 264 267 269 271 271 271 271 273
Wind_Speed_850mb
3 7 6 8 10 27 25 46 18 36 35 51 27 28 54 62 64 67 64 61 55 47 41 37 29 23 20 23 26 24 22 27 32 38 42 46 49 50 48 45 40 34 31 28
7 7 9 6 13 20 43 28 36 46 46 7 31 52 50 66 73 72 71 69 61 51 46 40 32 23 18 20 21 16 19 22 29 36 42 46 47 48 48 43 38 33 28 26
8 1 1 6 34 42 37 16 39 34 54 18 13 35 62 75 85 86 81 74 67 60 52 41 31 22 17 17 14 11 14 21 27 33 39 44 46 46 46 44 38 33 29 26
6 2 18 3 5 36 37 42 45 38 42 13 27 59 65 75 91 86 80 74 67 61 56 42 33 23 16 15 11 7 11 18 24 30 36 41 42 44 44 44 41 38 31 28
8 11 21 26 14 19 20 23 50 54 56 21 18 29 39 60 72 81 80 72 66 57 51 40 32 24 17 17 11 3 7 13 19 27 33 37 41 43 46 44 41 38 33 30
8 8 17 2 4 17 18 22 39 47 47 24 41 14 21 63 66 69 69 71 67 59 52 44 33 24 21 19 13 5 2 8 16 24 29 35 39 42 44 46 44 41 36 30
22 14 19 14 23 28 11 18 5 43 45 54 23 34 11 43 68 69 69 69 65 60 50 40 34 27 27 22 16 9 4 4 12 18 25 32 35 38 42 45 45 45 42 37
13 16 40 30 11 21 12 12 11 12 37 66 53 41 33 50 68 75 71 71 67 62 54 43 36 33 31 25 20 13 7 2 8 13 20 26 30 34 39 42 45 47 48 46
26 19 9 79 25 64 20 12 16 19 26 55 64 51 54 60 68 74 73 74 68 61 52 45 40 39 34 29 23 17 11 4 4 9 15 21 26 30 34 38 42 46 49 51
9 21 24 60 51 33 47 19 13 18 26 49 67 57 61 64 73 78 77 75 69 63 54 48 45 43 36 32 27 20 15 8 2 4 9 16 22 27 30 34 37 42 47 51
15 10 2 37 74 62 48 49 28 23 31 45 55 61 63 71 77 78 76 72 66 58 52 49 49 45 38 34 30 24 20 12 5 2 6 11 16 22 26 30 34 38 42 46
28 31 37 28 68 87 75 65 51 38 39 44 54 63 68 70 73 73 73 71 65 56 52 52 50 45 42 38 34 27 23 16 10 6 5 8 12 16 21 25 26 28 32 37
9 17 56 36 40 55 84 80 71 55 47 53 59 62 66 69 68 67 70 65 60 55 55 54 51 48 45 42 37 31 27 20 15 12 9 10 13 16 13 16 23 26 27 30
69 32 34 56 27 40 50 60 66 60 53 57 65 66 66 66 65 68 65 58 53 54 56 54 51 48 45 42 39 35 30 24 20 18 16 13 14 18 22 25 23 20 23 27
62 52 27 39 46 32 41 48 52 64 64 65 68 70 70 69 68 65 60 55 52 54 56 56 53 50 49 46 42 39 35 28 25 24 22 19 18 19 22 26 27 26 24 23
52 55 39 29 38 43 44 45 51 68 70 71 78 76 70 66 62 60 56 54 59 62 60 57 53 49 49 47 45 43 38 34 29 28 28 26 24 24 24 26 27 29 27 28
45 40 48 44 40 40 44 43 47 59 71 77 82 78 74 70 63 58 54 52 51 49 48 50 48 51 51 49 45 42 40 38 33 32 31 31 31 31 30 29 28 28 27 27
25 25 30 42 46 43 42 41 45 52 67 76 81 79 77 72 66 59 54 52 53 53 52 49 49 52 51 49 46 44 42 42 38 35 35 37 35 35 36 34 31 30 27 24
34 23 16 22 35 35 43 40 42 46 53 70 77 77 71 65 57 53 51 51 53 55 55 53 52 55 51 48 48 48 45 43 43 40 38 40 40 38 38 38 36 32 29 27
22 27 22 20 20 30 32 35 34 38 43 55 69 71 70 63 55 50 47 47 45 46 46 48 51 51 48 46 47 47 46 45 44 43 42 42 41 40 40 40 39 35 31 29
19 23 24 21 20 24 26 26 30 34 38 46 61 69 64 58 53 48 48 46 42 43 44 44 48 48 47 46 47 48 46 47 46 44 43 42 42 42 41 40 38 36 33 31
25 24 24 24 22 24 27 30 32 33 36 43 54 59 60 57 54 50 42 36 37 42 44 45 46 42 41 43 43 46 46 48 47 46 45 43 42 41 40 39 37 35 35 33
26 26 25 25 24 25 27 28 31 34 37 41 52 59 60 56 52 48 43 39 40 40 41 41 41 41 42 44 44 45 46 47 47 46 45 43 42 40 39 37 37 36 35 34
34 33 33 32 30 29 33 35 36 37 40 46 51 52 52 55 51 45 41 40 40 38 35 36 37 39 41 43 42 44 45 45 45 45 44 43 42 40 39 37 37 36 36 37
43 42 40 37 35 35 34 35 36 37 38 40 41 41 40 39 35 34 33 32 31 34 34 37 37 39 39 41 42 42 42 43 43 43 42 42 42 41 40 39 39 39 40 40
40 42 40 37 40 38 35 33 32 35 34 35 34 32 30 27 26 25 28 30 32 34 33 35 35 37 39 40 41 42 42 43 43 43 42 43 43 43 43 42 41 43 43 43
36 37 35 34 32 29 27 26 23 24 23 22 24 24 24 25 26 27 30 32 34 34 33 36 36 38 39 40 41 42 44 44 43 43 43 44 45 45 44 43 44 46 45 45
Wind_Direction_850mb
236 113 146 199 192 191 197 225 202 242 227 242 208 202 201 188 186 186 192 202 205 204 208 219 227 241 268 296 310 319 335 349 352 352 354 355 351 347 345 345 339 326 308 302
312 166 161 201 252 226 218 232 250 257 264 159 222 207 191 189 187 192 202 205 205 207 210 217 227 236 266 293 303 318 338 357 360 356 357 358 354 351 349 348 345 339 326 318
243 192 171 278 218 223 224 193 228 239 246 150 195 182 194 192 197 202 207 206 205 207 212 218 224 237 263 284 282 312 345 6 4 359 1 0 358 355 354 355 351 347 341 334
169 57 267 257 180 221 230 232 229 250 255 184 216 215 217 213 209 208 209 208 207 208 211 212 219 233 252 258 259 303 3 12 5 3 6 4 2 2 3 3 360 355 349 343
171 199 293 292 191 182 182 240 229 233 248 187 174 191 224 219 219 219 214 211 209 210 210 207 215 230 233 232 238 267 20 15 9 8 9 7 8 10 10 10 11 8 1 351
134 198 242 125 138 132 104 278 225 213 234 146 143 192 231 214 213 210 211 210 205 203 201 204 214 219 216 216 219 188 51 21 15 14 12 12 13 15 16 17 16 15 11 1
211 230 271 178 161 148 133 254 172 210 220 164 191 208 189 201 200 204 202 200 198 198 200 202 210 208 207 207 204 182 163 40 25 18 12 17 17 17 21 22 24 23 20 11
202 216 259 145 114 179 206 181 201 212 209 196 194 193 194 189 193 194 191 188 191 192 195 201 204 203 203 201 197 184 180 98 37 20 16 17 19 22 23 23 25 26 24 22
191 212 168 177 192 203 202 201 217 228 198 201 188 181 183 186 186 186 187 184 188 193 195 198 200 200 200 202 195 189 190 177 50 18 15 13 16 23 23 23 21 20 20 18
111 233 223 203 211 217 210 209 236 226 201 202 192 184 183 183 181 183 184 186 188 191 196 199 197 200 198 200 195 192 196 198 176 14 13 10 8 15 18 18 19 16 11 13
250 256 87 227 220 222 217 222 224 211 203 197 193 187 186 181 181 185 186 188 192 195 199 199 199 200 199 199 199 195 202 209 218 296 357 3 6 6 10 10 12 11 6 5
215 192 211 218 226 222 221 217 213 209 195 201 198 191 186 184 185 187 189 190 192 196 201 200 201 199 200 199 201 201 209 215 224 250 311 343 1 2 360 1 4 5 2 357
217 191 209 217 222 229 227 225 218 212 214 204 196 199 189 187 187 190 192 193 197 201 202 200 202 201 200 203 204 206 215 221 232 251 279 310 336 345 357 355 352 356 358 355
219 206 200 209 214 222 216 223 218 210 209 209 199 192 192 190 189 193 194 197 198 202 202 202 204 204 203 203 208 211 219 229 241 253 271 292 316 328 334 341 349 359 356 355
211 209 219 207 209 203 206 208 200 201 204 202 201 196 193 193 196 194 195 196 198 202 203 204 205 203 206 207 210 216 223 228 243 255 266 280 296 311 320 327 335 343 351 352
206 214 212 201 202 201 203 199 200 200 202 201 199 197 197 197 195 196 195 199 202 204 204 207 208 207 210 212 213 219 224 232 240 254 265 275 286 296 305 313 324 332 341 342
183 194 202 199 196 198 210 211 209 208 203 203 200 196 194 193 195 196 198 202 207 210 213 212 210 210 212 217 220 225 229 234 241 252 265 276 282 290 296 304 312 321 329 334
182 188 209 219 214 210 210 209 210 213 210 206 202 196 194 196 199 196 200 203 204 202 206 210 211 216 216 220 224 230 238 245 247 254 263 271 279 282 288 294 302 308 316 321
191 184 172 194 207 214 223 222 218 216 213 211 203 198 198 199 200 203 204 205 208 210 209 209 212 220 220 224 229 235 241 247 255 260 265 270 274 279 282 288 294 298 304 309
168 182 186 190 190 198 203 208 210 212 210 205 201 198 198 198 199 203 207 214 214 217 214 215 217 221 226 227 235 241 247 253 258 262 265 269 273 276 277 280 285 289 294 298
152 160 166 166 173 173 176 188 195 197 196 197 200 199 198 196 199 202 208 210 211 213 216 220 226 227 230 233 240 248 253 259 262 266 268 271 273 273 274 276 278 282 287 289
164 161 157 160 162 163 170 177 180 186 187 188 191 194 195 197 201 203 207 216 215 216 219 223 230 232 234 240 244 251 255 260 264 265 267 270 272 272 272 272 274 277 280 282
140 150 149 146 150 152 159 168 174 176 181 183 187 189 193 200 203 204 210 212 216 216 222 225 230 238 242 243 248 252 257 260 262 264 266 268 269 269 271 272 274 275 277 278
115 124 134 137 140 145 154 155 162 166 173 176 180 186 193 193 196 203 209 213 212 219 222 230 235 239 244 250 251 254 257 260 262 264 265 266 268 269 270 271 271 273 274 275
104 105 109 116 126 128 135 139 149 151 159 167 171 179 186 192 205 209 212 217 219 220 223 231 237 243 247 252 255 257 259 262 264 264 265 267 267 268 268 268 271 272 271 272
100 103 106 112 116 121 129 133 146 147 158 165 171 181 192 202 208 213 221 226 226 233 234 238 242 246 250 253 257 260 261 261 263 265 265 266 266 266 268 269 269 271 272 272
103 103 105 109 115 122 129 134 149 157 166 174 186 191 203 209 219 226 227 231 238 238 242 248 251 252 255 258 259 261 261 262 264 265 264 264 264 267 269 271 271 271 271 273